Weather History for Mosby, MO

Change the Weather History Date:

Saturday, December 15, 2012

  Actual Average (KMKC) Record (KMKC)
Temperature  
Mean Temperature 48 °F -  
Max Temperature 53 °F 40 °F 64 °F (2002)
Min Temperature 42 °F 24 °F 5 °F (2008)
Degree Days  
Heating Degree Days 18    
Moisture  
Dew Point 44 °F    
Average Humidity 83    
Maximum Humidity 100    
Minimum Humidity 71    
Precipitation  
Precipitation 0.00 in - - ()
Sea Level Pressure  
Sea Level Pressure 29.61 in    
Wind  
Wind Speed 10 mph (SW)    
Max Wind Speed 15 mph    
Max Gust Speed 22 mph    
Visibility 10 miles    
Events Rain    
Averages and records for this station are not official NWS values.
T = Trace of Precipitation, MM = Missing Value Source: NWS Daily Summary

Daily Weather History Graph

Daily Weather History Graph

Search for Another Location

Airport:

Trip Planner

Search our weather history database for the weather conditions in past years. The results will help you decide how hot, cold, wet, or windy it might be!

Date:

Astronomy

Dec. 15, 2012 Rise Set
Actual Time 7:30 AM CST 4:55 PM CST
Civil Twilight 7:00 AM CST 5:25 PM CST
Nautical Twilight 6:26 AM CST 5:58 PM CST
Astronomical Twilight 5:53 AM CST 6:31 PM CST
Moon 9:24 AM CST (12/15) 7:59 PM CST (12/15)
Length of Visible Light 10h 25m
Length of Day
9h 24m
Waxing Crescent, 8% of the Moon is Illuminated
Dec 15
Waxing Crescent
Dec 19
First Quarter
Dec 28
Full
Jan 4
Last Quarter
Jan 11
New

Hourly Weather History & Observations

Time (CST) Temp. Windchill Dew Point Humidity Pressure Visibility Wind Dir Wind Speed Gust Speed Precip Events Conditions
12:15 AM 42.8 °F 38.0 °F 41.0 °F 93% 29.75 in 1.8 mi SSE 8.1 mph - N/A   Overcast
12:35 AM 42.8 °F 38.0 °F 41.0 °F 93% 29.72 in 10.0 mi ESE 8.1 mph - N/A   Overcast
12:55 AM 42.8 °F 37.5 °F 41.0 °F 93% 29.69 in 10.0 mi ESE 9.2 mph - N/A   Overcast
1:15 AM 42.8 °F 36.6 °F 41.0 °F 93% 29.65 in 10.0 mi ESE 11.5 mph - N/A Rain Light Rain
1:35 AM 42.8 °F 37.5 °F 42.8 °F 100% 29.64 in 10.0 mi SE 9.2 mph 19.6 mph N/A   Overcast
1:55 AM 44.6 °F 38.8 °F 42.8 °F 93% 29.66 in 10.0 mi SE 11.5 mph 16.1 mph N/A   Overcast
2:15 AM 44.6 °F 38.4 °F 42.8 °F 93% 29.63 in 10.0 mi SE 12.7 mph 17.3 mph N/A   Overcast
2:35 AM 44.6 °F 39.2 °F 42.8 °F 93% 29.62 in 10.0 mi SE 10.4 mph 16.1 mph N/A   Overcast
2:55 AM 44.6 °F 38.1 °F 42.8 °F 93% 29.61 in 10.0 mi SSE 13.8 mph 19.6 mph N/A   Overcast
3:15 AM 46.4 °F 40.7 °F 42.8 °F 87% 29.60 in 10.0 mi SSE 12.7 mph 18.4 mph N/A   Overcast
3:35 AM 46.4 °F 41.5 °F 42.8 °F 87% 29.57 in 10.0 mi SE 10.4 mph 17.3 mph N/A   Overcast
3:55 AM 46.4 °F 43.5 °F 42.8 °F 87% 29.57 in 10.0 mi SSE 5.8 mph - N/A   Overcast
4:15 AM 46.4 °F 42.9 °F 44.6 °F 93% 29.56 in 10.0 mi SSE 6.9 mph - N/A   Overcast
4:35 AM 46.4 °F 42.9 °F 44.6 °F 93% 29.54 in 10.0 mi SSE 6.9 mph - N/A   Overcast
4:55 AM 50.0 °F - 44.6 °F 82% 29.53 in 10.0 mi South 10.4 mph 17.3 mph N/A   Overcast
5:15 AM 50.0 °F - 44.6 °F 82% 29.52 in 10.0 mi SSE 10.4 mph - N/A   Overcast
5:35 AM 50.0 °F - 46.4 °F 87% 29.52 in 10.0 mi South 10.4 mph - N/A Rain Rain
5:55 AM 50.0 °F - 46.4 °F 87% 29.51 in 7.0 mi South 11.5 mph 17.3 mph N/A Rain Rain
6:15 AM 48.2 °F - 46.4 °F 93% 29.52 in 5.0 mi South 10.4 mph 18.4 mph N/A Rain Light Rain
6:35 AM 48.2 °F - 46.4 °F 93% 29.52 in 7.0 mi South 10.4 mph - N/A Rain Light Rain
6:55 AM 48.2 °F - 46.4 °F 93% 29.51 in 7.0 mi South 8.1 mph - N/A   Drizzle
7:15 AM 48.2 °F - 46.4 °F 93% 29.52 in 10.0 mi South 9.2 mph - N/A   Light Drizzle
7:35 AM 48.2 °F - 46.4 °F 93% 29.52 in 10.0 mi South 8.1 mph - N/A   Overcast
8:15 AM 50.0 °F - 44.6 °F 82% 29.51 in 10.0 mi South 6.9 mph - N/A   Overcast
8:35 AM 50.0 °F - 44.6 °F 82% 29.52 in 10.0 mi SSW 10.4 mph - N/A   Overcast
8:55 AM 50.0 °F - 44.6 °F 82% 29.53 in 10.0 mi SSW 9.2 mph - N/A   Overcast
9:15 AM 50.0 °F - 42.8 °F 76% 29.54 in 10.0 mi SSW 8.1 mph - N/A   Overcast
9:35 AM 51.8 °F - 42.8 °F 71% 29.54 in 10.0 mi SW 10.4 mph 18.4 mph N/A   Overcast
9:55 AM 51.8 °F - 42.8 °F 71% 29.54 in 10.0 mi SSW 15.0 mph 21.9 mph N/A   Scattered Clouds
10:15 AM 51.8 °F - 44.6 °F 76% 29.54 in 10.0 mi WSW 13.8 mph 20.7 mph N/A   Scattered Clouds
10:35 AM 53.6 °F - 44.6 °F 72% 29.54 in 10.0 mi WSW 11.5 mph 18.4 mph N/A   Clear
10:55 AM 53.6 °F - 44.6 °F 72% 29.56 in 10.0 mi WSW 15.0 mph 19.6 mph N/A   Mostly Cloudy
11:15 AM 53.6 °F - 44.6 °F 72% 29.57 in 10.0 mi WSW 15.0 mph 19.6 mph N/A   Overcast
11:35 AM 51.8 °F - 44.6 °F 76% 29.57 in 10.0 mi WSW 13.8 mph - N/A   Overcast
11:55 AM 53.6 °F - 44.6 °F 72% 29.57 in 10.0 mi WSW 9.2 mph 13.8 mph N/A   Overcast
12:15 PM 51.8 °F - 44.6 °F 76% 29.57 in 10.0 mi WSW 15.0 mph 21.9 mph N/A   Overcast
12:35 PM 51.8 °F - 44.6 °F 76% 29.58 in 10.0 mi WSW 12.7 mph 19.6 mph N/A   Overcast
12:55 PM 51.8 °F - 44.6 °F 76% 29.58 in 10.0 mi WSW 12.7 mph 19.6 mph N/A   Overcast
1:15 PM 51.8 °F - 44.6 °F 76% 29.58 in 10.0 mi WSW 15.0 mph 20.7 mph N/A   Overcast
1:35 PM 51.8 °F - 44.6 °F 76% 29.58 in 10.0 mi SW 11.5 mph 19.6 mph N/A   Unknown
1:55 PM 51.8 °F - 44.6 °F 76% 29.59 in 10.0 mi WSW 11.5 mph 18.4 mph N/A   Overcast
2:15 PM 51.8 °F - 44.6 °F 76% 29.59 in 10.0 mi WSW 10.4 mph 19.6 mph N/A   Overcast
2:35 PM 51.8 °F - 44.6 °F 76% 29.60 in 10.0 mi WSW 10.4 mph 16.1 mph N/A   Overcast
2:55 PM 51.8 °F - 42.8 °F 71% 29.60 in 10.0 mi WSW 11.5 mph 16.1 mph N/A   Unknown
3:15 PM 50.0 °F - 44.6 °F 82% 29.61 in 10.0 mi WSW 10.4 mph 19.6 mph N/A   Overcast
3:35 PM 51.8 °F - 44.6 °F 76% 29.62 in 10.0 mi WSW 12.7 mph 20.7 mph N/A   Overcast
3:55 PM 50.0 °F - 44.6 °F 82% 29.63 in 10.0 mi WSW 9.2 mph - N/A   Overcast
4:15 PM 50.0 °F - 44.6 °F 82% 29.64 in 10.0 mi WSW 12.7 mph 18.4 mph N/A   Overcast
4:35 PM 50.0 °F - 44.6 °F 82% 29.64 in 10.0 mi WSW 8.1 mph - N/A   Overcast
4:55 PM 50.0 °F - 44.6 °F 82% 29.65 in 10.0 mi West 10.4 mph - N/A   Overcast
5:15 PM 50.0 °F - 44.6 °F 82% 29.66 in 10.0 mi West 8.1 mph - N/A   Overcast
5:35 PM 50.0 °F - 44.6 °F 82% 29.67 in 10.0 mi WSW 9.2 mph 16.1 mph N/A   Overcast
5:55 PM 50.0 °F - 44.6 °F 82% 29.66 in 10.0 mi WSW 8.1 mph - N/A   Overcast
6:15 PM 50.0 °F - 44.6 °F 82% 29.67 in 10.0 mi West 9.2 mph - N/A   Overcast
6:35 PM 50.0 °F - 44.6 °F 82% 29.67 in 10.0 mi WSW 9.2 mph - N/A   Overcast
6:55 PM 50.0 °F - 42.8 °F 76% 29.68 in 10.0 mi West 11.5 mph - N/A   Overcast
7:15 PM 50.0 °F - 42.8 °F 76% 29.68 in 10.0 mi West 8.1 mph - N/A   Overcast
7:35 PM 50.0 °F - 42.8 °F 76% 29.69 in 10.0 mi West 10.4 mph - N/A   Overcast
7:55 PM 50.0 °F - 42.8 °F 76% 29.69 in 10.0 mi West 8.1 mph - N/A   Overcast
8:15 PM 48.2 °F - 42.8 °F 82% 29.68 in 10.0 mi West 8.1 mph - N/A   Overcast
8:35 PM 48.2 °F - 42.8 °F 82% 29.69 in 10.0 mi WNW 5.8 mph - N/A   Overcast
8:55 PM 48.2 °F - 42.8 °F 82% 29.69 in 10.0 mi West 9.2 mph - N/A   Overcast
9:15 PM 46.4 °F 42.4 °F 42.8 °F 87% 29.70 in 10.0 mi WNW 8.1 mph - N/A   Overcast
9:35 PM 46.4 °F 42.4 °F 41.0 °F 81% 29.70 in 10.0 mi West 8.1 mph - N/A   Overcast
9:55 PM 46.4 °F 44.3 °F 41.0 °F 81% 29.71 in 10.0 mi West 4.6 mph - N/A   Overcast
10:15 PM 46.4 °F 43.5 °F 41.0 °F 81% 29.71 in 10.0 mi WNW 5.8 mph - N/A   Overcast
10:35 PM 46.4 °F 41.9 °F 41.0 °F 81% 29.71 in 10.0 mi WNW 9.2 mph - N/A   Overcast
10:55 PM 44.6 °F 40.7 °F 41.0 °F 87% 29.72 in 10.0 mi NW 6.9 mph - N/A   Overcast
11:15 PM 44.6 °F - 41.0 °F 87% 29.72 in 10.0 mi Calm Calm - N/A   Overcast
11:35 PM 44.6 °F 43.1 °F 39.2 °F 81% 29.72 in 10.0 mi West 3.5 mph - N/A   Scattered Clouds
11:55 PM 42.8 °F 41.1 °F 39.2 °F 87% 29.73 in 10.0 mi WNW 3.5 mph - N/A   Clear